sat.trackr.live / text

‹ back to catalog

STARLINK-33553

NORAD 62108 · 2024-220W

PAYLOAD ACTIVE UNKNOWN

§ Identity

Operator
Country
US
Launch date
2024-11-25
Launch site
AFETR
Launch vehicle
Mass (kg)
RCS (m²)

Purposes: comms

External: N2YO · Heavens-Above · Gunter

§ Orbital elements

Epoch: 2026-09-21T11:19:04.402272Z

Period
94.27 min
Inclination
42.9997°
Eccentricity
0.0000761
Mean motion
15.27582637 rev/d
Perigee alt
482.5 km
Apogee alt
483.6 km
Semi-major
6,861.2 km
B*
4.3776e-4
RAAN
179.8549°
Arg perigee
27.4084°
Mean anomaly
332.6808°
Rev number
10,313

§ Raw data

STARLINK-335531 62108U 24220W   26264.47157873  .00011804  00000+0  43776-3 0  99922 62108  42.9997 179.8549 0000761  27.4084 332.6808 15.27582637103135

JSON: /api/v1/satellites/62108 · /tle

For live sub-satellite position, see the globe view (requires WebGL).

§ Visibility from observer

Set your observer location to see the next 7 days of passes ≥ 10°. The values pass through the URL so the page stays shareable.

No JS? Fill the form by hand. The geolocation button needs JavaScript.